Find Starlink 1169

NORAD ID: 45061 Int'l Des: 2020-006 Owner: SPXS Country: US Constellation: starlink operational
LEOCIRCULAR

現在のビュー

3D地球を読み込み中...

About Starlink 1169

Starlink 1169 (NORAD 45061) is a starlink constellation satellite (v1.0) launched Jan 29, 2020 by SPXS of US. It operates in LEO, CIRCULAR orbit with a mass of 260.00 kg.

Starlink 1169について

説明を読み込み中...

次回通過

Passes for default location (London). Set your location on the main map for personalized predictions.

高度履歴

Loading altitude history...

軌道要素

1 45061U 20006T 26166.75853734 .00044252 00000-0 11272-2 0 9999
2 45061 53.1532 182.5723 0006307 357.9802 2.1176 15.39129217351607
Epoch: Jun 15, 2026 • Age: 14 hours

現在のステータス

高度 466.0 km
速度 7.63 km/s
衛星直下点 -52.39°S, 81.76°E
打ち上げ日 Jan 29, 2020
運用期間 6.3 years
タイプ internet

技術仕様

分類 Payload
質量 260.00 kg
乾燥質量 248.00 kg
総質量 260.00 kg
長さ 0.20 m
直径 2.80 m
スパン 9.00 m
形状 Box + pan
製造者 SPXS
バスタイプ Starlink
フェーズステータス In Orbit
所有者/国 SPXS/US

Most Searched